Location: Brachbach
(49.1847°N, 9.7240°E)
Time: 17:53:03
(UTC+00:00)

CUTE-I - Visible Passes

Search period start: 07 March 2026 00:00
Search period end: 17 March 2026 00:00
Orbit: 803 x 819 km, 98.7° (Epoch: 7 March)

Date Brightness Start Highest point End Pass type
(mag) Time Alt. Az. Time Alt. Az. Time Alt. Az.
7 Mar ? 04:45:17 10° NE 04:49:24 23° E 04:53:29 10° SE visible
7 Mar ? 17:50:47 10° SSW 17:55:07 25° W 17:59:30 10° NW visible
8 Mar ? 04:22:49 10° NE 04:25:39 14° E 04:28:29 10° ESE visible
10 Mar ? 18:22:12 10° WSW 18:25:06 15° W 18:27:59 10° NW visible
11 Mar ? 04:51:17 10° NE 04:55:38 25° E 04:59:55 10° SSE visible
11 Mar ? 17:57:13 10° SW 18:01:20 23° W 18:05:29 10° NW visible
12 Mar ? 04:28:37 10° NE 04:31:53 16° E 04:35:08 10° SE visible
14 Mar ? 18:28:59 10° WSW 18:31:19 13° W 18:33:41 10° WNW visible
15 Mar ? 04:57:17 10° NE 05:01:49 28° E 05:06:19 10° SSE visible
15 Mar ? 18:03:41 10° SW 18:07:33 20° W 18:11:25 10° NW visible
16 Mar ? 04:34:29 10° NE 04:38:06 18° E 04:41:42 10° SE visible
